Time,TemperatureF,DewpointF,PressureIn,WindDirection,WindDirectionDegrees,WindSpeedMPH,WindSpeedGustMPH,Humidity,HourlyPrecipIn,Conditions,Clouds,dailyrainin,SoftwareType,DateUTC
2013-05-06 00:01:00,77.4,70.7,29.94,North,0,0.0,0.0,80,0.00,,SCT120,0.00,VWS V14.01,2013-05-06 04:01:00,
2013-05-06 00:06:00,77.4,71.1,29.94,North,0,0.0,0.0,81,0.00,,SCT120,0.00,VWS V14.01,2013-05-06 04:06:00,
2013-05-06 00:11:00,77.4,71.1,29.94,North,0,0.0,0.0,81,0.00,,SCT120,0.00,VWS V14.01,2013-05-06 04:11:00,
2013-05-06 00:16:00,77.5,71.2,29.94,North,0,0.0,0.0,81,0.00,,SCT120,0.00,VWS V14.01,2013-05-06 04:16:00,
2013-05-06 00:21:00,77.7,71.4,29.94,North,0,0.0,0.0,81,0.00,,SCT120,0.00,VWS V14.01,2013-05-06 04:21:00,
2013-05-06 00:26:00,77.7,71.4,29.94,North,0,0.0,0.0,81,0.00,,SCT120,0.00,VWS V14.01,2013-05-06 04:26:00,
2013-05-06 00:31:00,77.7,71.4,29.94,North,0,0.0,0.0,81,0.00,,SCT120,0.00,VWS V14.01,2013-05-06 04:31:00,
2013-05-06 00:36:00,77.5,71.2,29.94,North,0,0.0,0.0,81,0.00,,SCT120,0.00,VWS V14.01,2013-05-06 04:36:00,
2013-05-06 00:41:00,77.4,71.1,29.91,North,0,0.0,0.0,81,0.00,,SCT120,0.00,VWS V14.01,2013-05-06 04:41:00,
2013-05-06 00:46:00,77.2,70.9,29.91,North,0,0.0,0.0,81,0.00,,SCT120,0.00,VWS V14.01,2013-05-06 04:46:00,
2013-05-06 00:51:00,77.2,70.9,29.91,North,0,0.0,0.0,81,0.00,,SCT120,0.00,VWS V14.01,2013-05-06 04:51:00,
2013-05-06 00:56:00,77.2,70.9,29.91,North,0,0.0,0.0,81,0.00,,SCT120,0.00,VWS V14.01,2013-05-06 04:56:00,
2013-05-06 01:01:00,77.0,70.7,29.91,North,0,0.0,0.0,81,0.00,,SCT120,0.00,VWS V14.01,2013-05-06 05:01:00,
2013-05-06 01:06:00,76.8,70.6,29.91,North,0,0.0,0.0,81,0.00,,SCT120,0.00,VWS V14.01,2013-05-06 05:06:00,
2013-05-06 01:11:00,76.8,70.9,29.91,North,0,0.0,0.0,82,0.00,,SCT120,0.00,VWS V14.01,2013-05-06 05:11:00,
2013-05-06 01:16:00,76.6,70.7,29.91,North,0,0.0,0.0,82,0.00,,SCT120,0.00,VWS V14.01,2013-05-06 05:16:00,
2013-05-06 01:21:00,76.6,70.7,29.91,North,0,0.0,0.0,82,0.00,,SCT120,0.00,VWS V14.01,2013-05-06 05:21:00,
2013-05-06 01:26:00,76.6,71.1,29.91,North,0,0.0,0.0,83,0.00,,SCT120,0.00,VWS V14.01,2013-05-06 05:26:00,
2013-05-06 01:31:00,76.5,70.9,29.91,North,0,0.0,0.0,83,0.00,,SCT120,0.00,VWS V14.01,2013-05-06 05:31:00,
2013-05-06 01:36:00,76.6,71.1,29.91,North,0,0.0,0.0,83,0.00,,SCT120,0.00,VWS V14.01,2013-05-06 05:36:00,
2013-05-06 01:41:00,76.5,70.9,29.91,North,0,0.0,0.0,83,0.00,,SCT120,0.00,VWS V14.01,2013-05-06 05:41:00,
2013-05-06 01:46:00,76.5,70.9,29.91,North,0,0.0,0.0,83,0.00,,SCT120,0.00,VWS V14.01,2013-05-06 05:46:00,
2013-05-06 01:51:00,76.5,70.9,29.91,North,0,0.0,0.0,83,0.00,,SCT120,0.00,VWS V14.01,2013-05-06 05:51:00,
2013-05-06 01:56:00,76.5,70.9,29.91,North,0,0.0,0.0,83,0.00,,SCT120,0.00,VWS V14.01,2013-05-06 05:56:00,
2013-05-06 02:01:00,76.5,70.9,29.91,North,0,0.0,0.0,83,0.00,,SCT120,0.00,VWS V14.01,2013-05-06 06:01:00,
2013-05-06 02:06:00,76.5,70.9,29.91,North,0,0.0,0.0,83,0.00,,SCT120,0.00,VWS V14.01,2013-05-06 06:06:00,
2013-05-06 02:11:00,76.5,70.9,29.91,North,0,0.0,0.0,83,0.00,,SCT120,0.00,VWS V14.01,2013-05-06 06:11:00,
2013-05-06 02:16:00,76.3,70.7,29.91,North,0,0.0,0.0,83,0.00,,SCT120,0.00,VWS V14.01,2013-05-06 06:16:00,
2013-05-06 02:21:00,76.1,70.6,29.91,North,0,0.0,0.0,83,0.00,,SCT120,0.00,VWS V14.01,2013-05-06 06:21:00,
2013-05-06 02:26:00,75.9,70.4,29.91,North,0,0.0,0.0,83,0.00,,SCT120,0.00,VWS V14.01,2013-05-06 06:26:00,
2013-05-06 02:31:00,75.9,70.4,29.91,North,0,0.0,0.0,83,0.00,,SCT120,0.00,VWS V14.01,2013-05-06 06:31:00,
2013-05-06 02:36:00,75.7,70.2,29.91,North,0,0.0,0.0,83,0.00,,SCT120,0.00,VWS V14.01,2013-05-06 06:36:00,
2013-05-06 02:41:00,75.9,70.4,29.91,North,0,0.0,0.0,83,0.00,,SCT120,0.00,VWS V14.01,2013-05-06 06:41:00,
2013-05-06 02:46:00,75.9,70.7,29.91,North,0,0.0,0.0,84,0.00,,SCT120,0.00,VWS V14.01,2013-05-06 06:46:00,
2013-05-06 02:51:00,75.9,70.7,29.91,North,0,0.0,0.0,84,0.00,,SCT120,0.00,VWS V14.01,2013-05-06 06:51:00,
2013-05-06 02:56:00,75.9,70.7,29.91,North,0,0.0,0.0,84,0.00,,SCT120,0.00,VWS V14.01,2013-05-06 06:56:00,
2013-05-06 03:01:00,75.7,70.6,29.91,North,0,0.0,0.0,84,0.00,,SCT120,0.00,VWS V14.01,2013-05-06 07:01:00,
2013-05-06 03:06:00,75.7,70.6,29.91,North,0,0.0,0.0,84,0.00,,SCT120,0.00,VWS V14.01,2013-05-06 07:06:00,
2013-05-06 03:11:00,75.7,70.6,29.91,North,0,0.0,0.0,84,0.00,,SCT120,0.00,VWS V14.01,2013-05-06 07:11:00,
2013-05-06 03:15:00,75.7,70.6,29.91,North,0,0.0,0.0,84,0.00,,SCT120,0.00,VWS V14.01,2013-05-06 07:15:00,
2013-05-06 03:20:00,75.6,70.7,29.91,North,0,0.0,0.0,85,0.00,,SCT120,0.00,VWS V14.01,2013-05-06 07:20:00,
2013-05-06 03:25:00,75.6,70.7,29.91,North,0,0.0,0.0,85,0.00,,SCT120,0.00,VWS V14.01,2013-05-06 07:25:00,
2013-05-06 03:30:00,75.7,70.9,29.91,North,0,0.0,0.0,85,0.00,,SCT120,0.00,VWS V14.01,2013-05-06 07:30:00,
2013-05-06 03:35:00,75.6,70.7,29.91,North,0,0.0,0.0,85,0.00,,SCT120,0.00,VWS V14.01,2013-05-06 07:35:00,
2013-05-06 03:40:00,75.4,70.6,29.91,North,0,0.0,0.0,85,0.00,,SCT120,0.00,VWS V14.01,2013-05-06 07:40:00,
2013-05-06 03:45:00,75.4,70.6,29.91,North,0,0.0,0.0,85,0.00,,SCT120,0.00,VWS V14.01,2013-05-06 07:45:00,
2013-05-06 03:50:00,75.4,70.6,29.91,North,0,0.0,0.0,85,0.00,,SCT120,0.00,VWS V14.01,2013-05-06 07:50:00,
2013-05-06 03:55:00,75.4,70.6,29.91,North,0,0.0,0.0,85,0.00,,SCT120,0.00,VWS V14.01,2013-05-06 07:55:00,
2013-05-06 04:00:00,75.2,70.4,29.91,North,0,0.0,0.0,85,0.00,,SCT120,0.00,VWS V14.01,2013-05-06 08:00:00,
2013-05-06 04:05:00,75.2,70.4,29.91,North,0,0.0,0.0,85,0.00,,SCT120,0.00,VWS V14.01,2013-05-06 08:05:00,
2013-05-06 04:10:00,75.2,70.4,29.91,North,0,0.0,0.0,85,0.00,,SCT120,0.00,VWS V14.01,2013-05-06 08:10:00,
2013-05-06 04:15:00,75.2,70.4,29.91,North,0,0.0,0.0,85,0.00,,SCT120,0.00,VWS V14.01,2013-05-06 08:15:00,
2013-05-06 04:20:00,75.2,70.7,29.91,North,0,0.0,0.0,86,0.00,,SCT120,0.00,VWS V14.01,2013-05-06 08:20:00,
2013-05-06 04:25:00,75.2,70.7,29.91,North,0,0.0,0.0,86,0.00,,SCT120,0.00,VWS V14.01,2013-05-06 08:25:00,
2013-05-06 04:30:00,75.2,70.7,29.91,North,0,0.0,0.0,86,0.00,,SCT120,0.00,VWS V14.01,2013-05-06 08:30:00,
2013-05-06 04:35:00,75.2,70.7,29.91,North,0,0.0,0.0,86,0.00,,SCT120,0.00,VWS V14.01,2013-05-06 08:35:00,
2013-05-06 04:40:00,75.2,70.7,29.91,North,0,0.0,0.0,86,0.00,,SCT120,0.00,VWS V14.01,2013-05-06 08:40:00,
2013-05-06 04:45:00,75.2,70.7,29.91,North,0,0.0,0.0,86,0.00,,SCT120,0.00,VWS V14.01,2013-05-06 08:45:00,
2013-05-06 04:50:00,75.4,70.9,29.91,North,0,0.0,0.0,86,0.00,,SCT120,0.00,VWS V14.01,2013-05-06 08:50:00,
2013-05-06 04:55:00,75.2,70.7,29.94,North,0,0.0,0.0,86,0.00,,SCT120,0.00,VWS V14.01,2013-05-06 08:55:00,
2013-05-06 05:00:00,75.0,70.9,29.94,North,0,0.0,0.0,87,0.00,,SCT120,0.00,VWS V14.01,2013-05-06 09:00:00,
2013-05-06 05:05:00,75.0,70.9,29.94,North,0,0.0,0.0,87,0.00,,SCT120,0.00,VWS V14.01,2013-05-06 09:05:00,
2013-05-06 05:10:00,74.8,70.7,29.94,North,0,0.0,0.0,87,0.00,,SCT120,0.00,VWS V14.01,2013-05-06 09:10:00,
2013-05-06 05:15:00,74.7,70.5,29.94,North,0,0.0,0.0,87,0.00,,SCT120,0.00,VWS V14.01,2013-05-06 09:15:00,
2013-05-06 05:20:00,74.7,70.5,29.94,North,0,0.0,0.0,87,0.00,,SCT120,0.00,VWS V14.01,2013-05-06 09:20:00,
2013-05-06 05:25:00,74.7,70.5,29.94,North,0,0.0,0.0,87,0.00,,SCT120,0.00,VWS V14.01,2013-05-06 09:25:00,
2013-05-06 05:30:00,74.7,70.5,29.94,North,0,0.0,0.0,87,0.00,,SCT120,0.00,VWS V14.01,2013-05-06 09:30:00,
2013-05-06 05:35:00,74.7,70.5,29.94,North,0,0.0,0.0,87,0.00,,SCT120,0.00,VWS V14.01,2013-05-06 09:35:00,
2013-05-06 05:40:00,74.7,70.5,29.94,North,0,0.0,0.0,87,0.00,,SCT120,0.00,VWS V14.01,2013-05-06 09:40:00,
2013-05-06 05:45:00,74.7,70.5,29.94,North,0,0.0,0.0,87,0.00,,SCT120,0.00,VWS V14.01,2013-05-06 09:45:00,
2013-05-06 05:50:00,74.5,70.4,29.94,North,0,0.0,0.0,87,0.00,,SCT120,0.00,VWS V14.01,2013-05-06 09:50:00,
2013-05-06 05:55:00,74.5,70.4,29.94,North,0,0.0,0.0,87,0.00,,SCT120,0.00,VWS V14.01,2013-05-06 09:55:00,
2013-05-06 06:00:00,74.5,70.4,29.94,North,0,0.0,0.0,87,0.00,,SCT120,0.00,VWS V14.01,2013-05-06 10:00:00,
2013-05-06 06:05:00,74.5,70.4,29.94,North,0,0.0,0.0,87,0.00,,SCT120,0.00,VWS V14.01,2013-05-06 10:05:00,
2013-05-06 06:10:00,74.5,70.4,29.94,North,0,0.0,0.0,87,0.00,,SCT120,0.00,VWS V14.01,2013-05-06 10:10:00,
2013-05-06 06:15:00,74.5,70.4,29.94,North,0,0.0,0.0,87,0.00,,SCT120,0.00,VWS V14.01,2013-05-06 10:15:00,
2013-05-06 06:20:00,74.5,70.4,29.94,North,0,0.0,0.0,87,0.00,,SCT120,0.00,VWS V14.01,2013-05-06 10:20:00,
2013-05-06 06:25:00,74.7,70.5,29.94,North,0,0.0,0.0,87,0.00,,SCT120,0.00,VWS V14.01,2013-05-06 10:25:00,
2013-05-06 06:30:00,74.8,71.1,29.94,North,0,0.0,0.0,88,0.00,,SCT120,0.00,VWS V14.01,2013-05-06 10:30:00,
2013-05-06 06:35:00,75.0,71.2,29.94,North,0,0.0,0.0,88,0.00,,SCT120,0.00,VWS V14.01,2013-05-06 10:35:00,
2013-05-06 06:40:00,75.2,71.1,29.94,North,0,0.0,0.0,87,0.00,,SCT120,0.00,VWS V14.01,2013-05-06 10:40:00,
2013-05-06 06:45:00,75.4,71.2,29.94,North,0,0.0,0.0,87,0.00,,SCT120,0.00,VWS V14.01,2013-05-06 10:45:00,
2013-05-06 06:50:00,75.6,71.8,29.94,North,0,0.0,0.0,88,0.00,,SCT120,0.00,VWS V14.01,2013-05-06 10:50:00,
2013-05-06 06:55:00,75.9,72.1,29.97,North,0,0.0,0.0,88,0.00,,SCT120,0.00,VWS V14.01,2013-05-06 10:55:00,
2013-05-06 07:00:00,76.1,72.3,29.97,North,0,0.0,0.0,88,0.00,,SCT120,0.00,VWS V14.01,2013-05-06 11:00:00,
2013-05-06 07:05:00,76.5,72.7,29.97,North,0,0.0,0.0,88,0.00,,SCT120,0.00,VWS V14.01,2013-05-06 11:05:00,
2013-05-06 07:10:00,76.8,73.0,29.97,North,0,0.0,0.0,88,0.00,,SCT120,0.00,VWS V14.01,2013-05-06 11:10:00,
2013-05-06 07:15:00,77.2,73.0,29.97,North,0,0.0,0.0,87,0.00,,SCT120,0.00,VWS V14.01,2013-05-06 11:15:00,
2013-05-06 07:20:00,77.5,73.4,29.97,North,0,0.0,0.0,87,0.00,,SCT120,0.00,VWS V14.01,2013-05-06 11:20:00,
2013-05-06 07:25:00,78.1,73.9,29.97,North,0,0.0,0.0,87,0.00,,SCT120,0.00,VWS V14.01,2013-05-06 11:25:00,
2013-05-06 07:30:00,78.4,74.2,29.97,North,0,0.0,0.0,87,0.00,,SCT120,0.00,VWS V14.01,2013-05-06 11:30:00,
2013-05-06 07:35:00,78.8,74.3,29.97,North,0,0.0,0.0,86,0.00,,SCT120,0.00,VWS V14.01,2013-05-06 11:35:00,
2013-05-06 07:40:00,79.3,74.8,29.97,North,0,0.0,0.0,86,0.00,,SCT120,0.00,VWS V14.01,2013-05-06 11:40:00,
2013-05-06 07:45:00,79.7,74.8,29.97,North,0,0.0,0.0,85,0.00,,SCT120,0.00,VWS V14.01,2013-05-06 11:45:00,
2013-05-06 07:50:00,80.2,75.0,29.97,North,0,0.0,0.0,84,0.00,,SCT120,0.00,VWS V14.01,2013-05-06 11:50:00,
2013-05-06 07:55:00,80.6,75.3,29.97,North,0,0.0,0.0,84,0.00,,SCT120,0.00,VWS V14.01,2013-05-06 11:55:00,
2013-05-06 08:00:00,81.1,75.5,29.97,North,0,0.0,0.0,83,0.00,,SCT120,0.00,VWS V14.01,2013-05-06 12:00:00,
2013-05-06 08:05:00,81.3,74.9,29.97,North,0,0.0,0.0,81,0.00,,SCT120,0.00,VWS V14.01,2013-05-06 12:05:00,
2013-05-06 08:10:00,81.7,74.5,29.97,North,0,0.0,0.0,79,0.00,,SCT120,0.00,VWS V14.01,2013-05-06 12:10:00,
2013-05-06 08:15:00,82.4,74.9,29.97,North,0,0.0,0.0,78,0.00,,SCT120,0.00,VWS V14.01,2013-05-06 12:15:00,
2013-05-06 08:20:00,82.4,73.7,29.97,North,0,0.0,0.0,75,0.00,,SCT120,0.00,VWS V14.01,2013-05-06 12:20:00,
2013-05-06 08:25:00,83.1,72.8,29.97,North,0,0.0,0.0,71,0.00,,SCT120,0.00,VWS V14.01,2013-05-06 12:25:00,
2013-05-06 08:30:00,83.5,71.8,29.97,North,0,0.0,0.0,68,0.00,,SCT120,0.00,VWS V14.01,2013-05-06 12:30:00,
2013-05-06 08:35:00,83.8,71.3,29.97,North,0,0.0,0.0,66,0.00,,SCT120,0.00,VWS V14.01,2013-05-06 12:35:00,
2013-05-06 08:40:00,84.2,69.3,29.97,North,0,0.0,0.0,61,0.00,,SCT120,0.00,VWS V14.01,2013-05-06 12:40:00,
2013-05-06 08:45:00,84.2,63.6,29.97,North,0,0.0,0.0,50,0.00,,SCT120,0.00,VWS V14.01,2013-05-06 12:45:00,
2013-05-06 08:50:00,84.7,62.9,29.97,North,0,0.0,0.0,48,0.00,,SCT120,0.00,VWS V14.01,2013-05-06 12:50:00,
2013-05-06 08:55:00,85.1,60.8,29.97,North,0,0.0,0.0,44,0.00,,SCT120,0.00,VWS V14.01,2013-05-06 12:55:00,
2013-05-06 09:00:00,85.6,62.5,29.97,North,0,0.0,0.0,46,0.00,,SCT120,0.00,VWS V14.01,2013-05-06 13:00:00,
2013-05-06 09:05:00,86.2,61.7,29.97,North,0,0.0,0.0,44,0.00,,SCT120,0.00,VWS V14.01,2013-05-06 13:05:00,
2013-05-06 09:10:00,86.7,61.6,30.00,North,0,0.0,0.0,43,0.00,,SCT120,0.00,VWS V14.01,2013-05-06 13:10:00,
2013-05-06 09:15:00,87.1,61.2,30.00,North,0,0.0,0.0,42,0.00,,SCT120,0.00,VWS V14.01,2013-05-06 13:15:00,
2013-05-06 09:20:00,87.4,60.2,30.00,North,0,0.0,0.0,40,0.00,,SCT120,0.00,VWS V14.01,2013-05-06 13:20:00,
2013-05-06 09:25:00,87.6,59.6,30.00,North,0,0.0,0.0,39,0.00,,SCT120,0.00,VWS V14.01,2013-05-06 13:25:00,
2013-05-06 09:30:00,87.6,54.2,30.00,North,0,0.0,0.0,32,0.00,,SCT120,0.00,VWS V14.01,2013-05-06 13:30:00,
2013-05-06 09:35:00,88.0,53.6,30.00,North,0,0.0,0.0,31,0.00,,SCT120,0.00,VWS V14.01,2013-05-06 13:35:00,
2013-05-06 09:40:00,88.5,54.1,30.00,North,0,0.0,0.0,31,0.00,,SCT120,0.00,VWS V14.01,2013-05-06 13:40:00,
2013-05-06 09:45:00,88.7,52.4,30.00,North,0,0.0,0.0,29,0.00,,SCT120,0.00,VWS V14.01,2013-05-06 13:45:00,
2013-05-06 09:50:00,88.7,52.4,30.00,North,0,0.0,0.0,29,0.00,,SCT120,0.00,VWS V14.01,2013-05-06 13:50:00,
2013-05-06 09:55:00,89.1,52.7,30.00,North,0,0.0,0.0,29,0.00,,SCT120,0.00,VWS V14.01,2013-05-06 13:55:00,
2013-05-06 10:00:00,89.1,52.7,30.00,North,0,0.0,0.0,29,0.00,,SCT120,0.00,VWS V14.01,2013-05-06 14:00:00,
2013-05-06 10:05:00,88.7,51.4,30.00,North,0,0.0,0.0,28,0.00,,SCT120,0.00,VWS V14.01,2013-05-06 14:05:00,
2013-05-06 10:10:00,89.4,52.1,30.00,North,0,0.0,0.0,28,0.00,,SCT120,0.00,VWS V14.01,2013-05-06 14:10:00,
2013-05-06 10:15:00,90.3,52.8,30.00,North,0,0.0,0.0,28,0.00,,SCT120,0.00,VWS V14.01,2013-05-06 14:15:00,
2013-05-06 10:20:00,91.4,52.8,30.00,North,0,0.0,0.0,27,0.00,,SCT120,0.00,VWS V14.01,2013-05-06 14:20:00,
2013-05-06 10:25:00,91.9,47.7,29.97,North,0,0.0,0.0,22,0.00,,SCT120,0.00,VWS V14.01,2013-05-06 14:25:00,
2013-05-06 10:30:00,92.3,44.1,29.97,North,0,0.0,0.0,19,0.00,,SCT120,0.00,VWS V14.01,2013-05-06 14:30:00,
2013-05-06 10:35:00,91.9,45.2,29.97,North,0,0.0,0.0,20,0.00,,SCT120,0.00,VWS V14.01,2013-05-06 14:35:00,
2013-05-06 10:40:00,90.7,49.0,29.97,North,0,0.0,0.0,24,0.00,,SCT120,0.00,VWS V14.01,2013-05-06 14:40:00,
2013-05-06 10:45:00,89.2,53.8,29.97,North,0,0.0,0.0,30,0.00,,SCT120,0.00,VWS V14.01,2013-05-06 14:45:00,
2013-05-06 10:50:00,88.0,53.6,29.97,North,0,0.0,0.0,31,0.00,,SCT120,0.00,VWS V14.01,2013-05-06 14:50:00,
2013-05-06 10:55:00,87.1,57.7,29.97,North,0,0.0,0.0,37,0.00,,SCT120,0.00,VWS V14.01,2013-05-06 14:55:00,
2013-05-06 11:00:00,87.6,57.4,29.97,North,0,0.0,0.0,36,0.00,,SCT120,0.00,VWS V14.01,2013-05-06 15:00:00,
2013-05-06 11:05:00,88.7,55.9,29.97,North,0,0.0,0.0,33,0.00,,SCT120,0.00,VWS V14.01,2013-05-06 15:05:00,
2013-05-06 11:10:00,88.5,56.6,29.97,North,0,0.0,0.0,34,0.00,,SCT120,0.00,VWS V14.01,2013-05-06 15:10:00,
2013-05-06 11:15:00,89.8,55.1,29.97,North,0,0.0,0.0,31,0.00,,SCT120,0.00,VWS V14.01,2013-05-06 15:15:00,
2013-05-06 11:20:00,91.2,55.5,29.97,North,0,0.0,0.0,30,0.00,,SCT120,0.00,VWS V14.01,2013-05-06 15:20:00,
2013-05-06 11:25:00,90.7,54.1,29.97,North,0,0.0,0.0,29,0.00,,SCT120,0.00,VWS V14.01,2013-05-06 15:25:00,
2013-05-06 11:30:00,90.3,53.8,29.97,North,0,0.0,0.0,29,0.00,,SCT120,0.00,VWS V14.01,2013-05-06 15:30:00,
2013-05-06 11:35:00,89.2,53.8,29.97,North,0,0.0,0.0,30,0.00,,SCT120,0.00,VWS V14.01,2013-05-06 15:35:00,
2013-05-06 11:40:00,90.7,55.0,29.97,North,0,0.0,0.0,30,0.00,,SCT120,0.00,VWS V14.01,2013-05-06 15:40:00,
2013-05-06 11:45:00,90.1,54.5,29.97,North,0,0.0,0.0,30,0.00,,SCT120,0.00,VWS V14.01,2013-05-06 15:45:00,
2013-05-06 11:50:00,88.2,53.7,29.97,North,0,0.0,0.0,31,0.00,,SCT120,0.00,VWS V14.01,2013-05-06 15:50:00,
2013-05-06 11:55:00,89.4,53.9,29.97,North,0,0.0,0.0,30,0.00,,SCT120,0.00,VWS V14.01,2013-05-06 15:55:00,
2013-05-06 12:00:00,89.6,54.1,29.97,North,0,0.0,0.0,30,0.00,,SCT120,0.00,VWS V14.01,2013-05-06 16:00:00,
2013-05-06 12:05:00,89.6,54.1,29.97,North,0,0.0,0.0,30,0.00,,SCT120,0.00,VWS V14.01,2013-05-06 16:05:00,
2013-05-06 12:10:00,90.5,53.0,29.97,North,0,0.0,0.0,28,0.00,,SCT120,0.00,VWS V14.01,2013-05-06 16:10:00,
2013-05-06 12:15:00,90.7,53.1,29.97,North,0,0.0,0.0,28,0.00,,SCT120,0.00,VWS V14.01,2013-05-06 16:15:00,
2013-05-06 12:20:00,89.8,52.4,29.97,North,0,0.0,0.0,28,0.00,,SCT120,0.00,VWS V14.01,2013-05-06 16:20:00,
2013-05-06 12:25:00,89.6,52.2,29.94,North,0,0.0,0.0,28,0.00,,SCT120,0.00,VWS V14.01,2013-05-06 16:25:00,
2013-05-06 12:30:00,88.3,53.9,29.94,North,0,0.0,0.0,31,0.00,,SCT120,0.00,VWS V14.01,2013-05-06 16:30:00,
2013-05-06 12:35:00,89.4,54.8,29.94,North,0,0.0,0.0,31,0.00,,SCT120,0.00,VWS V14.01,2013-05-06 16:35:00,
2013-05-06 12:40:00,89.6,54.1,29.94,North,0,0.0,0.0,30,0.00,,SCT120,0.00,VWS V14.01,2013-05-06 16:40:00,
2013-05-06 12:45:00,89.1,56.2,29.94,North,0,0.0,0.0,33,0.00,,SCT120,0.00,VWS V14.01,2013-05-06 16:45:00,
2013-05-06 12:50:00,88.5,54.9,29.94,North,0,0.0,0.0,32,0.00,,SCT120,0.00,VWS V14.01,2013-05-06 16:50:00,
2013-05-06 12:55:00,89.2,55.5,29.94,North,0,0.0,0.0,32,0.00,,SCT120,0.00,VWS V14.01,2013-05-06 16:55:00,
2013-05-06 13:00:00,89.1,54.5,29.94,North,0,0.0,0.0,31,0.00,,SCT120,0.00,VWS V14.01,2013-05-06 17:00:00,
2013-05-06 13:05:00,88.7,55.1,29.94,North,0,0.0,0.0,32,0.00,,SCT120,0.00,VWS V14.01,2013-05-06 17:05:00,
2013-05-06 13:10:00,87.6,54.2,29.94,North,0,0.0,0.0,32,0.00,,SCT120,0.00,VWS V14.01,2013-05-06 17:10:00,
2013-05-06 13:15:00,87.3,56.3,29.94,North,0,0.0,0.0,35,0.00,,SCT120,0.00,VWS V14.01,2013-05-06 17:15:00,
2013-05-06 13:20:00,87.6,55.0,29.94,North,0,0.0,0.0,33,0.00,,SCT120,0.00,VWS V14.01,2013-05-06 17:20:00,
2013-05-06 13:25:00,86.5,54.9,29.94,North,0,0.0,0.0,34,0.00,,SCT120,0.00,VWS V14.01,2013-05-06 17:25:00,
2013-05-06 13:30:00,87.1,57.7,29.94,North,0,0.0,0.0,37,0.00,,SCT120,0.00,VWS V14.01,2013-05-06 17:30:00,
2013-05-06 13:35:00,87.1,58.4,29.94,North,0,0.0,0.0,38,0.00,,SCT120,0.00,VWS V14.01,2013-05-06 17:35:00,
2013-05-06 13:40:00,87.1,59.2,29.94,North,0,0.0,0.0,39,0.00,,SCT120,0.00,VWS V14.01,2013-05-06 17:40:00,
2013-05-06 13:45:00,86.9,59.0,29.94,North,0,0.0,0.0,39,0.00,,SCT120,0.00,VWS V14.01,2013-05-06 17:45:00,
2013-05-06 13:50:00,86.5,60.7,29.94,North,0,0.0,0.0,42,0.00,,SCT120,0.00,VWS V14.01,2013-05-06 17:50:00,
2013-05-06 13:55:00,86.5,66.3,29.94,North,0,0.0,0.0,51,0.00,,SCT120,0.00,VWS V14.01,2013-05-06 17:55:00,
2013-05-06 14:00:00,85.6,64.3,29.94,North,0,0.0,0.0,49,0.00,,SCT120,0.00,VWS V14.01,2013-05-06 18:00:00,
2013-05-06 14:05:00,84.7,64.6,29.94,North,0,0.0,0.0,51,0.04,,SCT120,0.04,VWS V14.01,2013-05-06 18:05:00,
2013-05-06 14:10:00,84.4,64.8,29.94,North,0,0.0,0.0,52,0.04,,SCT120,0.04,VWS V14.01,2013-05-06 18:10:00,
2013-05-06 14:15:00,84.2,66.3,29.94,North,0,0.0,0.0,55,0.04,,SCT120,0.04,VWS V14.01,2013-05-06 18:15:00,
2013-05-06 14:20:00,84.2,68.3,29.94,North,0,0.0,0.0,59,0.04,,SCT120,0.04,VWS V14.01,2013-05-06 18:20:00,
2013-05-06 14:25:00,84.0,69.6,29.94,North,0,0.0,0.0,62,0.04,,SCT120,0.04,VWS V14.01,2013-05-06 18:25:00,
2013-05-06 14:30:00,84.0,70.1,29.94,North,0,0.0,0.0,63,0.04,,SCT120,0.04,VWS V14.01,2013-05-06 18:30:00,
2013-05-06 14:35:00,84.0,70.5,29.94,North,0,0.0,0.0,64,0.04,,SCT120,0.04,VWS V14.01,2013-05-06 18:35:00,
2013-05-06 14:40:00,84.0,70.5,29.94,North,0,0.0,0.0,64,0.04,,SCT120,0.04,VWS V14.01,2013-05-06 18:40:00,
2013-05-06 14:45:00,84.0,71.0,29.94,North,0,0.0,0.0,65,0.04,,SCT120,0.04,VWS V14.01,2013-05-06 18:45:00,
2013-05-06 14:50:00,84.0,71.9,29.94,North,0,0.0,0.0,67,0.04,,SCT120,0.04,VWS V14.01,2013-05-06 18:50:00,
2013-05-06 14:55:00,83.8,71.3,29.91,North,0,0.0,0.0,66,0.04,,SCT120,0.04,VWS V14.01,2013-05-06 18:55:00,
2013-05-06 15:00:00,83.7,70.7,29.91,North,0,0.0,0.0,65,0.04,,SCT120,0.04,VWS V14.01,2013-05-06 19:00:00,
2013-05-06 15:05:00,83.7,70.2,29.91,North,0,0.0,0.0,64,0.04,,SCT120,0.04,VWS V14.01,2013-05-06 19:05:00,
2013-05-06 15:10:00,83.7,70.2,29.94,North,0,0.0,0.0,64,0.04,,SCT120,0.04,VWS V14.01,2013-05-06 19:10:00,
2013-05-06 15:15:00,83.3,69.4,29.94,North,0,0.0,0.0,63,0.08,,SCT120,0.08,VWS V14.01,2013-05-06 19:15:00,
2013-05-06 15:20:00,83.3,69.4,29.94,North,0,0.0,0.0,63,0.04,,SCT120,0.08,VWS V14.01,2013-05-06 19:20:00,
2013-05-06 15:25:00,83.3,70.8,29.94,North,0,0.0,0.0,66,0.04,,SCT120,0.08,VWS V14.01,2013-05-06 19:25:00,
2013-05-06 15:30:00,83.1,70.1,29.94,North,0,0.0,0.0,65,0.04,,SCT120,0.08,VWS V14.01,2013-05-06 19:30:00,
2013-05-06 15:35:00,82.9,69.5,29.94,North,0,0.0,0.0,64,0.04,,SCT120,0.08,VWS V14.01,2013-05-06 19:35:00,
2013-05-06 15:40:00,82.6,68.2,29.94,North,0,0.0,0.0,62,0.04,,SCT120,0.08,VWS V14.01,2013-05-06 19:40:00,
2013-05-06 15:45:00,82.6,68.2,29.94,North,0,0.0,0.0,62,0.04,,SCT120,0.08,VWS V14.01,2013-05-06 19:45:00,
2013-05-06 15:50:00,82.6,68.7,29.94,North,0,0.0,0.0,63,0.04,,SCT120,0.08,VWS V14.01,2013-05-06 19:50:00,
2013-05-06 15:55:00,82.6,68.7,29.94,North,0,0.0,0.0,63,0.04,,SCT120,0.08,VWS V14.01,2013-05-06 19:55:00,
2013-05-06 16:00:00,82.4,68.1,29.94,North,0,0.0,0.0,62,0.04,,SCT120,0.08,VWS V14.01,2013-05-06 20:00:00,
2013-05-06 16:05:00,82.6,69.2,29.94,North,0,0.0,0.0,64,0.04,,SCT120,0.08,VWS V14.01,2013-05-06 20:05:00,
2013-05-06 16:10:00,82.8,69.3,29.94,North,0,0.0,0.0,64,0.04,,SCT120,0.08,VWS V14.01,2013-05-06 20:10:00,
2013-05-06 16:15:00,82.9,70.0,29.94,North,0,0.0,0.0,65,0.04,,SCT120,0.08,VWS V14.01,2013-05-06 20:15:00,
2013-05-06 16:20:00,82.9,69.1,29.94,North,0,0.0,0.0,63,0.00,,SCT120,0.08,VWS V14.01,2013-05-06 20:20:00,
2013-05-06 16:25:00,82.8,69.3,29.94,North,0,0.0,0.0,64,0.00,,SCT120,0.08,VWS V14.01,2013-05-06 20:25:00,
2013-05-06 16:30:00,82.6,68.2,29.94,North,0,0.0,0.0,62,0.00,,SCT120,0.08,VWS V14.01,2013-05-06 20:30:00,
2013-05-06 16:35:00,82.8,68.4,29.94,North,0,0.0,0.0,62,0.00,,SCT120,0.08,VWS V14.01,2013-05-06 20:35:00,
2013-05-06 16:40:00,82.9,69.5,29.94,North,0,0.0,0.0,64,0.00,,SCT120,0.08,VWS V14.01,2013-05-06 20:40:00,
2013-05-06 16:45:00,83.1,70.1,29.94,North,0,0.0,0.0,65,0.00,,SCT120,0.08,VWS V14.01,2013-05-06 20:45:00,
2013-05-06 16:50:00,82.9,69.5,29.94,North,0,0.0,0.0,64,0.00,,SCT120,0.08,VWS V14.01,2013-05-06 20:50:00,
2013-05-06 16:55:00,82.9,69.1,29.94,North,0,0.0,0.0,63,0.00,,SCT120,0.08,VWS V14.01,2013-05-06 20:55:00,
2013-05-06 17:00:00,82.9,69.1,29.94,North,0,0.0,0.0,63,0.00,,SCT120,0.08,VWS V14.01,2013-05-06 21:00:00,
2013-05-06 17:05:00,82.9,69.1,29.94,North,0,0.0,0.0,63,0.00,,SCT120,0.08,VWS V14.01,2013-05-06 21:05:00,
2013-05-06 17:10:00,82.8,68.9,29.94,North,0,0.0,0.0,63,0.00,,SCT120,0.08,VWS V14.01,2013-05-06 21:10:00,
2013-05-06 17:15:00,82.8,68.4,29.94,North,0,0.0,0.0,62,0.00,,SCT120,0.08,VWS V14.01,2013-05-06 21:15:00,
2013-05-06 17:20:00,82.4,68.1,29.94,North,0,0.0,0.0,62,0.00,,SCT120,0.08,VWS V14.01,2013-05-06 21:20:00,
2013-05-06 17:25:00,82.4,68.1,29.94,North,0,0.0,0.0,62,0.00,,SCT120,0.08,VWS V14.01,2013-05-06 21:25:00,
2013-05-06 17:30:00,82.4,68.6,29.94,North,0,0.0,0.0,63,0.00,,SCT120,0.08,VWS V14.01,2013-05-06 21:30:00,
2013-05-06 17:35:00,82.4,68.6,29.94,North,0,0.0,0.0,63,0.00,,SCT120,0.08,VWS V14.01,2013-05-06 21:35:00,
2013-05-06 17:40:00,82.2,67.9,29.94,North,0,0.0,0.0,62,0.00,,SCT120,0.08,VWS V14.01,2013-05-06 21:40:00,
2013-05-06 17:45:00,82.0,67.8,29.94,North,0,0.0,0.0,62,0.00,,SCT120,0.08,VWS V14.01,2013-05-06 21:45:00,
2013-05-06 17:50:00,81.9,67.6,29.94,North,0,0.0,0.0,62,0.00,,SCT120,0.08,VWS V14.01,2013-05-06 21:50:00,
2013-05-06 17:55:00,82.0,68.2,29.94,North,0,0.0,0.0,63,0.00,,SCT120,0.08,VWS V14.01,2013-05-06 21:55:00,
2013-05-06 18:00:00,82.2,68.4,29.94,North,0,0.0,0.0,63,0.00,,SCT120,0.08,VWS V14.01,2013-05-06 22:00:00,
2013-05-06 18:05:00,82.2,68.8,29.94,North,0,0.0,0.0,64,0.00,,SCT120,0.08,VWS V14.01,2013-05-06 22:05:00,
2013-05-06 18:10:00,82.2,68.8,29.94,North,0,0.0,0.0,64,0.00,,SCT120,0.08,VWS V14.01,2013-05-06 22:10:00,
2013-05-06 18:15:00,82.2,68.4,29.94,North,0,0.0,0.0,63,0.00,,SCT120,0.08,VWS V14.01,2013-05-06 22:15:00,
2013-05-06 18:20:00,82.4,67.6,29.94,North,0,0.0,0.0,61,0.00,,SCT120,0.08,VWS V14.01,2013-05-06 22:20:00,
2013-05-06 18:25:00,82.6,67.3,29.94,North,0,0.0,0.0,60,0.00,,SCT120,0.08,VWS V14.01,2013-05-06 22:25:00,
2013-05-06 18:30:00,82.6,66.8,29.94,North,0,0.0,0.0,59,0.00,,SCT120,0.08,VWS V14.01,2013-05-06 22:30:00,
2013-05-06 18:35:00,82.4,66.2,29.94,North,0,0.0,0.0,58,0.00,,SCT120,0.08,VWS V14.01,2013-05-06 22:35:00,
2013-05-06 18:40:00,82.4,66.2,29.97,North,0,0.0,0.0,58,0.00,,SCT120,0.08,VWS V14.01,2013-05-06 22:40:00,
2013-05-06 18:45:00,82.0,65.3,29.97,North,0,0.0,0.0,57,0.00,,SCT120,0.08,VWS V14.01,2013-05-06 22:45:00,
2013-05-06 18:50:00,81.9,65.7,29.97,North,0,0.0,0.0,58,0.00,,SCT120,0.08,VWS V14.01,2013-05-06 22:50:00,
2013-05-06 18:55:00,81.5,66.3,29.94,North,0,0.0,0.0,60,0.00,,SCT120,0.08,VWS V14.01,2013-05-06 22:55:00,
2013-05-06 19:00:00,81.3,67.1,29.94,North,0,0.0,0.0,62,0.00,,SCT120,0.08,VWS V14.01,2013-05-06 23:00:00,
2013-05-06 19:05:00,81.0,67.2,29.94,North,0,0.0,0.0,63,0.00,,SCT120,0.08,VWS V14.01,2013-05-06 23:05:00,
2013-05-06 19:10:00,80.6,67.3,29.97,North,0,0.0,0.0,64,0.00,,SCT120,0.08,VWS V14.01,2013-05-06 23:10:00,
2013-05-06 19:15:00,80.4,67.6,29.97,North,0,0.0,0.0,65,0.00,,SCT120,0.08,VWS V14.01,2013-05-06 23:15:00,
2013-05-06 19:20:00,80.4,67.6,29.97,North,0,0.0,0.0,65,0.00,,SCT120,0.08,VWS V14.01,2013-05-06 23:20:00,
2013-05-06 19:25:00,80.2,67.4,29.94,North,0,0.0,0.0,65,0.00,,SCT120,0.08,VWS V14.01,2013-05-06 23:25:00,
2013-05-06 19:30:00,80.1,67.7,29.94,North,0,0.0,0.0,66,0.00,,SCT120,0.08,VWS V14.01,2013-05-06 23:30:00,
2013-05-06 19:35:00,80.1,68.1,29.94,North,0,0.0,0.0,67,0.00,,SCT120,0.08,VWS V14.01,2013-05-06 23:35:00,
2013-05-06 19:40:00,79.9,68.4,29.97,North,0,0.0,0.0,68,0.00,,SCT120,0.08,VWS V14.01,2013-05-06 23:40:00,
2013-05-06 19:45:00,79.7,67.8,29.97,North,0,0.0,0.0,67,0.00,,SCT120,0.08,VWS V14.01,2013-05-06 23:45:00,
2013-05-06 19:50:00,79.5,68.0,29.97,North,0,0.0,0.0,68,0.00,,SCT120,0.08,VWS V14.01,2013-05-06 23:50:00,
2013-05-06 19:55:00,79.3,67.4,29.97,North,0,0.0,0.0,67,0.00,,SCT120,0.08,VWS V14.01,2013-05-06 23:55:00,
2013-05-06 20:00:00,79.5,67.6,29.97,North,0,0.0,0.0,67,0.00,,SCT120,0.08,VWS V14.01,2013-05-07 00:00:00,
2013-05-06 20:05:00,79.7,68.2,29.97,North,0,0.0,0.0,68,0.00,,SCT120,0.08,VWS V14.01,2013-05-07 00:05:00,
2013-05-06 20:10:00,79.5,68.0,29.97,North,0,0.0,0.0,68,0.00,,SCT120,0.08,VWS V14.01,2013-05-07 00:10:00,
2013-05-06 20:15:00,79.3,67.9,29.97,North,0,0.0,0.0,68,0.00,,SCT120,0.08,VWS V14.01,2013-05-07 00:15:00,
2013-05-06 20:20:00,79.3,68.3,29.97,North,0,0.0,0.0,69,0.00,,SCT120,0.08,VWS V14.01,2013-05-07 00:20:00,
2013-05-06 20:25:00,79.3,68.3,30.00,North,0,0.0,0.0,69,0.00,,SCT120,0.08,VWS V14.01,2013-05-07 00:25:00,
2013-05-06 20:30:00,79.0,67.9,30.00,North,0,0.0,0.0,69,0.00,,SCT120,0.08,VWS V14.01,2013-05-07 00:30:00,
2013-05-06 20:35:00,79.0,68.4,30.00,North,0,0.0,0.0,70,0.00,,SCT120,0.08,VWS V14.01,2013-05-07 00:35:00,
2013-05-06 20:40:00,79.0,68.4,30.00,North,0,0.0,0.0,70,0.00,,SCT120,0.08,VWS V14.01,2013-05-07 00:40:00,
2013-05-06 20:45:00,79.0,68.4,30.00,North,0,0.0,0.0,70,0.00,,SCT120,0.08,VWS V14.01,2013-05-07 00:45:00,
2013-05-06 20:50:00,79.0,68.4,30.00,North,0,0.0,0.0,70,0.00,,SCT120,0.08,VWS V14.01,2013-05-07 00:50:00,
2013-05-06 20:55:00,79.0,68.8,30.00,North,0,0.0,0.0,71,0.00,,SCT120,0.08,VWS V14.01,2013-05-07 00:55:00,
2013-05-06 21:00:00,79.0,68.8,30.00,North,0,0.0,0.0,71,0.00,,SCT120,0.08,VWS V14.01,2013-05-07 01:00:00,
2013-05-06 21:05:00,78.8,68.6,30.00,North,0,0.0,0.0,71,0.00,,SCT120,0.08,VWS V14.01,2013-05-07 01:05:00,
2013-05-06 21:10:00,78.6,68.4,30.00,North,0,0.0,0.0,71,0.00,,SCT120,0.08,VWS V14.01,2013-05-07 01:10:00,
2013-05-06 21:15:00,78.4,68.7,30.00,North,0,0.0,0.0,72,0.00,,SCT120,0.08,VWS V14.01,2013-05-07 01:15:00,
2013-05-06 21:20:00,78.4,68.7,30.00,North,0,0.0,0.0,72,0.00,,SCT120,0.08,VWS V14.01,2013-05-07 01:20:00,
2013-05-06 21:25:00,78.3,68.5,30.00,North,0,0.0,0.0,72,0.00,,SCT120,0.08,VWS V14.01,2013-05-07 01:25:00,
2013-05-06 21:30:00,78.3,68.5,30.00,North,0,0.0,0.0,72,0.00,,SCT120,0.08,VWS V14.01,2013-05-07 01:30:00,
2013-05-06 21:35:00,78.3,68.9,30.00,North,0,0.0,0.0,73,0.00,,SCT120,0.08,VWS V14.01,2013-05-07 01:35:00,
2013-05-06 21:40:00,78.3,68.9,30.00,North,0,0.0,0.0,73,0.00,,SCT120,0.08,VWS V14.01,2013-05-07 01:40:00,
2013-05-06 21:45:00,78.3,69.3,30.00,North,0,0.0,0.0,74,0.00,,SCT120,0.08,VWS V14.01,2013-05-07 01:45:00,
2013-05-06 21:50:00,78.3,69.3,30.00,North,0,0.0,0.0,74,0.00,,SCT120,0.08,VWS V14.01,2013-05-07 01:50:00,
2013-05-06 21:55:00,78.3,69.3,30.00,North,0,0.0,0.0,74,0.00,,SCT120,0.08,VWS V14.01,2013-05-07 01:55:00,
2013-05-06 22:00:00,78.1,69.5,30.00,North,0,0.0,0.0,75,0.00,,SCT120,0.08,VWS V14.01,2013-05-07 02:00:00,
2013-05-06 22:05:00,78.1,69.5,30.00,North,0,0.0,0.0,75,0.00,,SCT120,0.08,VWS V14.01,2013-05-07 02:05:00,
2013-05-06 22:10:00,77.9,69.3,30.00,North,0,0.0,0.0,75,0.00,,SCT120,0.08,VWS V14.01,2013-05-07 02:10:00,
2013-05-06 22:15:00,78.1,69.5,30.00,North,0,0.0,0.0,75,0.00,,SCT120,0.08,VWS V14.01,2013-05-07 02:15:00,
2013-05-06 22:20:00,78.3,69.7,30.00,North,0,0.0,0.0,75,0.00,,SCT120,0.08,VWS V14.01,2013-05-07 02:20:00,
2013-05-06 22:25:00,78.1,69.5,30.03,North,0,0.0,0.0,75,0.00,,SCT120,0.08,VWS V14.01,2013-05-07 02:25:00,
2013-05-06 22:30:00,77.9,69.3,30.03,North,0,0.0,0.0,75,0.00,,SCT120,0.08,VWS V14.01,2013-05-07 02:30:00,
2013-05-06 22:35:00,78.1,69.9,30.03,North,0,0.0,0.0,76,0.00,,SCT120,0.08,VWS V14.01,2013-05-07 02:35:00,
2013-05-06 22:40:00,78.1,69.9,30.03,North,0,0.0,0.0,76,0.00,,SCT120,0.08,VWS V14.01,2013-05-07 02:40:00,
2013-05-06 22:45:00,78.1,70.3,30.03,North,0,0.0,0.0,77,0.00,,SCT120,0.08,VWS V14.01,2013-05-07 02:45:00,
2013-05-06 22:50:00,78.3,70.5,30.03,North,0,0.0,0.0,77,0.00,,SCT120,0.08,VWS V14.01,2013-05-07 02:50:00,
2013-05-06 22:55:00,78.3,70.5,30.03,North,0,0.0,0.0,77,0.00,,SCT120,0.08,VWS V14.01,2013-05-07 02:55:00,
2013-05-06 23:00:00,78.3,70.5,30.03,North,0,0.0,0.0,77,0.00,,SCT120,0.08,VWS V14.01,2013-05-07 03:00:00,
2013-05-06 23:05:00,78.1,69.9,30.03,North,0,0.0,0.0,76,0.00,,SCT120,0.08,VWS V14.01,2013-05-07 03:05:00,
2013-05-06 23:10:00,78.1,69.9,30.03,North,0,0.0,0.0,76,0.00,,SCT120,0.08,VWS V14.01,2013-05-07 03:10:00,
2013-05-06 23:15:00,78.1,69.9,30.03,North,0,0.0,0.0,76,0.00,,SCT120,0.08,VWS V14.01,2013-05-07 03:15:00,
2013-05-06 23:20:00,77.9,69.7,30.03,North,0,0.0,0.0,76,0.00,,SCT120,0.08,VWS V14.01,2013-05-07 03:20:00,
2013-05-06 23:25:00,77.9,69.7,30.00,North,0,0.0,0.0,76,0.00,,SCT120,0.08,VWS V14.01,2013-05-07 03:25:00,
2013-05-06 23:30:00,77.9,69.7,30.00,North,0,0.0,0.0,76,0.00,,SCT120,0.08,VWS V14.01,2013-05-07 03:30:00,
2013-05-06 23:35:00,77.9,69.7,30.00,North,0,0.0,0.0,76,0.00,,SCT120,0.08,VWS V14.01,2013-05-07 03:35:00,
2013-05-06 23:40:00,77.9,69.7,30.00,North,0,0.0,0.0,76,0.00,,SCT120,0.08,VWS V14.01,2013-05-07 03:40:00,
2013-05-06 23:45:00,77.9,69.7,30.00,North,0,0.0,0.0,76,0.00,,SCT120,0.08,VWS V14.01,2013-05-07 03:45:00,
2013-05-06 23:50:00,77.9,69.7,30.00,North,0,0.0,0.0,76,0.00,,SCT120,0.08,VWS V14.01,2013-05-07 03:50:00,
2013-05-06 23:55:00,77.7,69.9,30.00,North,0,0.0,0.0,77,0.00,,SCT120,0.08,VWS V14.01,2013-05-07 03:55:00,